Weather in Polanitsa

Ukraine / Ivano-Frankovsk District     48°20′55″N   24°26′39″E
temp.,
°C
wind,
m/s
gust,
m/s
humid.,
%
clouds,
%
prec.,
mm/h
press.,
hPa
HPBL,
m
15 may, sat
sat1500:00+6sw2598100 0.4 1009374
03:00+6sw2498100 0.6 1010290
06:00+6sw2399100 0.1 1010241
09:00+6sw2398100 0.3 1012225
12:00+8wsw128794 0.1 1012485
15:00+12wsw116798 0.3 1010981
18:00+11ese127622 0.6 1010597
21:00+7ese119418 0.8 101111
16 may, sun
sun1600:00+5s119669 0.0 101212
03:00+5ssw119084 0.0 101110
06:00+5s1188100 0.0 101010
09:00+12sw11676 0.0 1009342
12:00+15ssw116786 1.4 10081070
15:00+10s119277 5.0 100865
18:00+11sw2288100 2.4 1007437
21:00+9wsw2298100 7.7 100884
17 may, mon
mon1700:00+7sw2298100 2.3 101075
03:00+6sw2199100 2.3 101032
06:00+5sw119833 0.0 101039
09:00+9s018963 0.0 1009268
12:00+16se125258 0.0 10061554
15:00+14wsw2263100 0.1 1005995
18:00+15wsw3454100 0.1 10041226
21:00+10wsw2288100 0.3 100535
18 may, tue
tue1800:00+9sw2398100 3.6 1004125
03:00+7wsw4119485 4.8 1004911
06:00+6wsw2898100 0.6 1005958
09:00+6sw259687 1.3 1008441
12:00+7wsw488777 0.4 1009939
15:00+10wsw476366 0.6 10081355
18:00+8sw377691 0.1 10101020
21:00+5sw239592 0.2 1011112
19 may, wed
wed1900:00+5sw239588 0.1 1012122
03:00+4sw229948 0.1 101356
06:00+3sw229921 0.0 101342
09:00+8wsw227659 0.1 1013636
12:00+11wnw236065 0.6 10131407
15:00+10nnw1168100 1.7 1013865
18:00+8ne1289100 2.1 1014131
21:00+6ne1297100 3.0 101655